{"data":{"norad_id":32388,"intl_designator":"2007-063B","name":"HORIZONS-2","alt_names":[],"object_type":"PAYLOAD","status":"ACTIVE","operator":null,"country":"ITSO","launch_date":"2007-12-21","launch_site_code":"FRGUI","launch_vehicle":null,"mission":null,"orbit_class":"UNKNOWN","rcs_meters":17.3208,"size_class":null,"mass_kg":null,"dimensions":null,"purposes":["comms"],"wikipedia_slug":null,"has_3d_model":false,"image_url":null,"decayed_at":null,"tle_current":{"epoch":"2026-05-25T03:23:33.091008Z","epoch_age_seconds":69757,"freshness":"FRESH","line1":"1 32388U 07063B   26145.14135522 -.00000255  00000+0  00000+0 0  9992","line2":"2 32388   2.5451  80.8981 0003914 343.5585 155.3825  1.00272558 67582","mean_motion":1.00272558,"eccentricity":0.0003914,"inclination_deg":2.5451,"raan_deg":80.8981,"arg_perigee_deg":343.5585,"mean_anomaly_deg":155.3825,"bstar":0,"rev_number":6758,"period_min":1436.0858331748,"perigee_km":35769.875071348,"apogee_km":35802.881453896,"semimajor_km":42164.515262622,"source":"CELESTRAK","updated_at":"2026-05-25T13:38:14.326466Z"}}}